TimeCST,TemperatureF,Dew PointF,Humidity,Sea Level PressureIn,VisibilityMPH,Wind Direction,Wind SpeedMPH,Gust SpeedMPH,PrecipitationIn,Events,Conditions,WindDirDegrees,DateUTC
12:15 AM,30.2,19.4,64,30.42,10.0,NNE,5.8,-,N/A,,Clear,30,2013-02-01 06:15:00
12:35 AM,30.2,21.2,69,30.44,10.0,NNE,4.6,-,N/A,,Clear,30,2013-02-01 06:35:00
12:55 AM,28.4,19.4,69,30.43,10.0,NE,5.8,-,N/A,,Clear,40,2013-02-01 06:55:00
1:15 AM,28.4,19.4,69,30.43,10.0,NE,5.8,-,N/A,,Clear,40,2013-02-01 07:15:00
1:35 AM,28.4,19.4,69,30.44,10.0,NNE,5.8,-,N/A,,Clear,30,2013-02-01 07:35:00
1:55 AM,26.6,19.4,74,30.43,10.0,NE,5.8,-,N/A,,Clear,40,2013-02-01 07:55:00
2:15 AM,26.6,19.4,74,30.44,10.0,NE,5.8,-,N/A,,Clear,40,2013-02-01 08:15:00
2:35 AM,26.6,19.4,74,30.44,10.0,NNE,4.6,-,N/A,,Clear,20,2013-02-01 08:35:00
3:15 AM,26.6,19.4,74,30.44,10.0,NNE,5.8,-,N/A,,Clear,30,2013-02-01 09:15:00
3:35 AM,24.8,19.4,80,30.44,10.0,NE,5.8,-,N/A,,Clear,50,2013-02-01 09:35:00
3:55 AM,24.8,17.6,74,30.43,10.0,NE,5.8,-,N/A,,Clear,50,2013-02-01 09:55:00
4:15 AM,24.8,17.6,74,30.43,10.0,NE,5.8,-,N/A,,Clear,50,2013-02-01 10:15:00
4:35 AM,24.8,17.6,74,30.42,10.0,ENE,4.6,-,N/A,,Clear,60,2013-02-01 10:35:00
4:55 AM,24.8,17.6,74,30.42,10.0,ENE,5.8,-,N/A,,Clear,60,2013-02-01 10:55:00
5:15 AM,24.8,17.6,74,30.42,10.0,ENE,3.5,-,N/A,,Clear,70,2013-02-01 11:15:00
5:35 AM,24.8,17.6,74,30.42,10.0,ENE,5.8,-,N/A,,Clear,70,2013-02-01 11:35:00
5:55 AM,23.0,17.6,80,30.42,10.0,ENE,4.6,-,N/A,,Clear,70,2013-02-01 11:55:00
6:15 AM,23.0,17.6,80,30.42,10.0,East,6.9,-,N/A,,Clear,90,2013-02-01 12:15:00
6:35 AM,23.0,17.6,80,30.42,10.0,East,6.9,-,N/A,,Clear,90,2013-02-01 12:35:00
6:55 AM,23.0,15.8,74,30.41,10.0,East,5.8,-,N/A,,Clear,100,2013-02-01 12:55:00
7:15 AM,23.0,17.6,80,30.41,10.0,East,5.8,-,N/A,,Clear,90,2013-02-01 13:15:00
7:35 AM,23.0,17.6,80,30.42,10.0,East,4.6,-,N/A,,Clear,100,2013-02-01 13:35:00
7:55 AM,23.0,14.0,68,30.43,10.0,ESE,6.9,-,N/A,,Clear,110,2013-02-01 13:55:00
8:15 AM,24.8,14.0,64,30.42,10.0,East,6.9,-,N/A,,Clear,90,2013-02-01 14:15:00
8:35 AM,26.6,14.0,59,30.43,10.0,ESE,5.8,-,N/A,,Clear,110,2013-02-01 14:35:00
8:55 AM,26.6,14.0,59,30.42,10.0,East,8.1,-,N/A,,Clear,90,2013-02-01 14:55:00
9:15 AM,28.4,14.0,55,30.42,10.0,East,8.1,-,0.01,,Clear,90,2013-02-01 15:15:00
9:35 AM,30.2,15.8,55,30.43,10.0,ESE,5.8,-,0.01,,Clear,110,2013-02-01 15:35:00
9:55 AM,32.0,17.6,55,30.44,10.0,SE,5.8,-,0.01,,Clear,130,2013-02-01 15:55:00
10:15 AM,32.0,14.0,48,30.43,10.0,SE,6.9,-,N/A,,Clear,140,2013-02-01 16:15:00
10:35 AM,32.0,14.0,48,30.42,10.0,SSE,6.9,-,N/A,,Clear,160,2013-02-01 16:35:00
10:55 AM,33.8,14.0,44,30.42,10.0,ESE,8.1,-,N/A,,Clear,120,2013-02-01 16:55:00
11:15 AM,35.6,15.8,44,30.41,10.0,SSE,3.5,-,N/A,,Clear,160,2013-02-01 17:15:00
11:35 AM,35.6,15.8,44,30.40,10.0,SSE,3.5,-,N/A,,Clear,160,2013-02-01 17:35:00
11:55 AM,39.2,17.6,42,30.37,10.0,ESE,9.2,-,N/A,,Clear,120,2013-02-01 17:55:00
12:15 PM,41.0,17.6,39,30.35,10.0,SSE,8.1,-,N/A,,Clear,160,2013-02-01 18:15:00
12:35 PM,42.8,19.4,39,30.33,10.0,SE,9.2,-,N/A,,Clear,130,2013-02-01 18:35:00
12:55 PM,44.6,21.2,39,30.32,10.0,SSE,10.4,-,N/A,,Clear,160,2013-02-01 18:55:00
1:15 PM,46.4,21.2,37,30.31,10.0,SSE,8.1,-,N/A,,Clear,150,2013-02-01 19:15:00
1:35 PM,48.2,23.0,37,30.28,10.0,SSE,8.1,-,N/A,,Clear,160,2013-02-01 19:35:00
1:55 PM,50.0,24.8,37,30.26,10.0,SE,12.7,17.3,N/A,,Clear,130,2013-02-01 19:55:00
2:15 PM,51.8,26.6,38,30.25,10.0,SSE,12.7,16.1,N/A,,Clear,150,2013-02-01 20:15:00
2:35 PM,51.8,26.6,38,30.24,10.0,SSE,10.4,-,N/A,,Clear,160,2013-02-01 20:35:00
2:55 PM,51.8,26.6,38,30.23,10.0,South,10.4,-,N/A,,Clear,170,2013-02-01 20:55:00
3:15 PM,53.6,28.4,38,30.21,10.0,South,11.5,20.7,N/A,,Clear,170,2013-02-01 21:15:00
3:35 PM,53.6,28.4,38,30.20,10.0,South,13.8,21.9,N/A,,Clear,180,2013-02-01 21:35:00
3:55 PM,53.6,28.4,38,30.19,10.0,SSE,16.1,21.9,N/A,,Clear,160,2013-02-01 21:55:00
4:15 PM,53.6,30.2,41,30.17,10.0,SSE,13.8,-,N/A,,Clear,160,2013-02-01 22:15:00
4:35 PM,53.6,30.2,41,30.17,10.0,SSE,13.8,-,N/A,,Clear,150,2013-02-01 22:35:00
4:55 PM,51.8,30.2,44,30.17,10.0,SSE,11.5,-,N/A,,Clear,160,2013-02-01 22:55:00
5:15 PM,51.8,30.2,44,30.16,10.0,SSE,12.7,-,N/A,,Clear,160,2013-02-01 23:15:00
5:35 PM,51.8,30.2,44,30.15,10.0,SSE,12.7,-,N/A,,Clear,160,2013-02-01 23:35:00
5:55 PM,51.8,32.0,47,30.15,10.0,SSE,9.2,-,N/A,,Clear,160,2013-02-01 23:55:00
6:15 PM,48.2,30.2,50,30.16,10.0,SSE,8.1,-,N/A,,Clear,160,2013-02-02 00:15:00
6:35 PM,48.2,32.0,54,30.15,10.0,South,9.2,-,N/A,,Clear,170,2013-02-02 00:35:00
6:55 PM,48.2,32.0,54,30.14,10.0,South,10.4,-,N/A,,Clear,170,2013-02-02 00:55:00
7:15 PM,48.2,32.0,54,30.14,10.0,South,9.2,-,N/A,,Clear,170,2013-02-02 01:15:00
7:55 PM,44.6,32.0,61,30.17,10.0,South,4.6,-,N/A,,Clear,190,2013-02-02 01:55:00
8:15 PM,44.6,32.0,61,30.17,10.0,South,3.5,-,N/A,,Clear,190,2013-02-02 02:15:00
8:35 PM,44.6,32.0,61,30.18,10.0,Calm,Calm,-,N/A,,Clear,0,2013-02-02 02:35:00
8:55 PM,41.0,32.0,70,30.20,10.0,North,5.8,-,N/A,,Clear,360,2013-02-02 02:55:00
9:15 PM,41.0,32.0,70,30.20,10.0,Calm,Calm,-,N/A,,Clear,0,2013-02-02 03:15:00
9:35 PM,42.8,32.0,66,30.20,10.0,Calm,Calm,-,N/A,,Clear,0,2013-02-02 03:35:00
9:55 PM,42.8,32.0,66,30.21,10.0,Calm,Calm,-,N/A,,Clear,0,2013-02-02 03:55:00
10:15 PM,41.0,32.0,70,30.22,10.0,Calm,Calm,-,N/A,,Clear,0,2013-02-02 04:15:00
10:35 PM,41.0,32.0,70,30.20,10.0,SSE,3.5,-,N/A,,Clear,150,2013-02-02 04:35:00
10:55 PM,41.0,32.0,70,30.21,10.0,SE,4.6,-,N/A,,Clear,130,2013-02-02 04:55:00
11:15 PM,42.8,32.0,66,30.21,10.0,ESE,3.5,-,N/A,,Clear,110,2013-02-02 05:15:00
11:55 PM,41.0,32.0,70,30.21,10.0,ESE,4.6,-,N/A,,Clear,110,2013-02-02 05:55:00